Time,TemperatureF,DewpointF,PressureIn,WindDirection,WindDirectionDegrees,WindSpeedMPH,WindSpeedGustMPH,Humidity,HourlyPrecipIn,Conditions,Clouds,dailyrainin,SoftwareType,DateUTC
2013-08-27 00:04:00,68.0,68.0,29.88,WSW,248,1.0,2.0,100,0.00,,,0.00,Weather View 32 v70,2013-08-27 04:04:00,
2013-08-27 00:09:00,68.0,68.0,29.87,SE,135,0.0,2.0,100,0.00,,,0.00,Weather View 32 v70,2013-08-27 04:09:00,
2013-08-27 00:15:00,68.0,68.0,29.87,South,180,1.0,2.0,100,0.00,,,0.00,Weather View 32 v70,2013-08-27 04:15:00,
2013-08-27 00:20:00,67.0,67.0,29.87,South,180,1.0,3.0,100,0.00,,,0.00,Weather View 32 v70,2013-08-27 04:20:00,
2013-08-27 00:24:00,67.0,67.0,29.87,SSW,202,1.0,3.0,100,0.00,,,0.00,Weather View 32 v70,2013-08-27 04:24:00,
2013-08-27 00:34:00,68.0,68.0,29.87,WSW,248,0.0,3.0,100,0.00,,,0.00,Weather View 32 v70,2013-08-27 04:34:00,
2013-08-27 00:40:00,67.0,67.0,29.87,WSW,248,1.0,3.0,100,0.00,,,0.00,Weather View 32 v70,2013-08-27 04:40:00,
2013-08-27 00:44:00,67.0,67.0,29.87,WSW,248,0.0,3.0,100,0.00,,,0.00,Weather View 32 v70,2013-08-27 04:44:00,
2013-08-27 00:50:00,67.0,67.0,29.87,SW,225,0.0,3.0,100,0.00,,,0.00,Weather View 32 v70,2013-08-27 04:50:00,
2013-08-27 00:59:00,67.0,67.0,29.87,West,270,0.0,3.0,100,0.00,,,0.00,Weather View 32 v70,2013-08-27 04:59:00,
2013-08-27 01:10:00,67.0,67.0,29.86,South,180,0.0,3.0,100,0.00,,,0.00,Weather View 32 v70,2013-08-27 05:10:00,
2013-08-27 01:19:00,67.0,67.0,29.86,WNW,292,0.0,3.0,100,0.00,,,0.00,Weather View 32 v70,2013-08-27 05:19:00,
2013-08-27 01:30:00,67.0,67.0,29.86,SW,225,0.0,2.0,100,0.00,,,0.00,Weather View 32 v70,2013-08-27 05:30:00,
2013-08-27 01:39:00,67.0,67.0,29.86,WNW,292,1.0,2.0,100,0.00,,,0.00,Weather View 32 v70,2013-08-27 05:39:00,
2013-08-27 01:45:00,67.0,67.0,29.86,WNW,292,1.0,2.0,100,0.00,,,0.00,Weather View 32 v70,2013-08-27 05:45:00,
2013-08-27 01:54:00,67.0,67.0,29.86,WNW,292,0.0,2.0,100,0.00,,,0.00,Weather View 32 v70,2013-08-27 05:54:00,
2013-08-27 02:05:00,67.0,67.0,29.86,WNW,292,0.0,2.0,100,0.00,,,0.00,Weather View 32 v70,2013-08-27 06:05:00,
2013-08-27 02:14:00,67.0,67.0,29.86,WNW,292,0.0,2.0,100,0.00,,,0.00,Weather View 32 v70,2013-08-27 06:14:00,
2013-08-27 02:20:00,67.0,67.0,29.86,WNW,292,0.0,2.0,100,0.00,,,0.00,Weather View 32 v70,2013-08-27 06:20:00,
2013-08-27 02:29:00,67.0,67.0,29.86,WNW,292,0.0,2.0,100,0.00,,,0.00,Weather View 32 v70,2013-08-27 06:29:00,
2013-08-27 02:40:00,67.0,67.0,29.86,WNW,292,0.0,1.0,100,0.00,,,0.00,Weather View 32 v70,2013-08-27 06:40:00,
2013-08-27 02:49:00,67.0,67.0,29.87,WNW,292,0.0,1.0,100,0.00,,,0.00,Weather View 32 v70,2013-08-27 06:49:00,
2013-08-27 02:55:00,67.0,67.0,29.87,WNW,292,0.0,0.0,100,0.00,,,0.00,Weather View 32 v70,2013-08-27 06:55:00,
2013-08-27 03:04:00,66.0,66.0,29.86,WNW,292,0.0,0.0,100,0.00,,,0.00,Weather View 32 v70,2013-08-27 07:04:00,
2013-08-27 03:10:00,66.0,66.0,29.86,WNW,292,0.0,0.0,100,0.00,,,0.00,Weather View 32 v70,2013-08-27 07:10:00,
2013-08-27 03:19:00,66.0,66.0,29.86,WNW,292,0.0,0.0,100,0.00,,,0.00,Weather View 32 v70,2013-08-27 07:19:00,
2013-08-27 03:30:00,67.0,67.0,29.86,WNW,292,0.0,0.0,100,0.00,,,0.00,Weather View 32 v70,2013-08-27 07:30:00,
2013-08-27 03:39:00,66.0,66.0,29.86,WNW,292,0.0,0.0,100,0.00,,,0.00,Weather View 32 v70,2013-08-27 07:39:00,
2013-08-27 03:45:00,66.0,66.0,29.86,WNW,292,1.0,2.0,100,0.00,,,0.00,Weather View 32 v70,2013-08-27 07:45:00,
2013-08-27 03:54:00,66.0,66.0,29.86,WNW,292,0.0,2.0,100,0.00,,,0.00,Weather View 32 v70,2013-08-27 07:54:00,
2013-08-27 04:05:00,66.0,66.0,29.86,WNW,292,0.0,2.0,100,0.00,,,0.00,Weather View 32 v70,2013-08-27 08:05:00,
2013-08-27 04:14:00,65.0,65.0,29.86,WNW,292,0.0,2.0,100,0.00,,,0.00,Weather View 32 v70,2013-08-27 08:14:00,
2013-08-27 04:20:00,66.0,66.0,29.86,WSW,248,0.0,2.0,100,0.00,,,0.00,Weather View 32 v70,2013-08-27 08:20:00,
2013-08-27 04:29:00,66.0,66.0,29.86,SW,225,0.0,2.0,100,0.00,,,0.00,Weather View 32 v70,2013-08-27 08:29:00,
2013-08-27 04:39:00,66.0,66.0,29.86,SW,225,0.0,2.0,100,0.00,,,0.00,Weather View 32 v70,2013-08-27 08:39:00,
2013-08-27 04:44:00,66.0,66.0,29.86,SW,225,0.0,1.0,100,0.00,,,0.00,Weather View 32 v70,2013-08-27 08:44:00,
2013-08-27 04:55:00,66.0,66.0,29.86,SW,225,0.0,0.0,100,0.00,,,0.00,Weather View 32 v70,2013-08-27 08:55:00,
2013-08-27 05:04:00,66.0,66.0,29.86,SW,225,0.0,0.0,100,0.00,,,0.00,Weather View 32 v70,2013-08-27 09:04:00,
2013-08-27 05:15:00,66.0,66.0,29.86,WNW,292,0.0,0.0,100,0.00,,,0.00,Weather View 32 v70,2013-08-27 09:15:00,
2013-08-27 05:25:00,66.0,66.0,29.87,WNW,292,0.0,0.0,100,0.00,,,0.00,Weather View 32 v70,2013-08-27 09:25:00,
2013-08-27 05:29:00,66.0,66.0,29.87,WNW,292,0.0,0.0,100,0.00,,,0.00,Weather View 32 v70,2013-08-27 09:29:00,
2013-08-27 05:39:00,66.0,66.0,29.87,WNW,292,0.0,0.0,100,0.00,,,0.00,Weather View 32 v70,2013-08-27 09:39:00,
2013-08-27 05:45:00,67.0,67.0,29.87,WNW,292,0.0,0.0,100,0.00,,,0.00,Weather View 32 v70,2013-08-27 09:45:00,
2013-08-27 05:54:00,67.0,67.0,29.87,WNW,292,0.0,0.0,100,0.00,,,0.00,Weather View 32 v70,2013-08-27 09:54:00,
2013-08-27 06:05:00,66.0,66.0,29.87,WNW,292,0.0,0.0,100,0.00,,,0.00,Weather View 32 v70,2013-08-27 10:05:00,
2013-08-27 06:14:00,66.0,66.0,29.87,WNW,292,0.0,0.0,100,0.00,,,0.00,Weather View 32 v70,2013-08-27 10:14:00,
2013-08-27 06:25:00,66.0,66.0,29.88,SW,225,1.0,2.0,100,0.00,,,0.00,Weather View 32 v70,2013-08-27 10:25:00,
2013-08-27 06:35:00,67.0,67.0,29.89,WSW,248,1.0,2.0,100,0.00,,,0.00,Weather View 32 v70,2013-08-27 10:35:00,
2013-08-27 06:44:00,67.0,67.0,29.88,WSW,248,0.0,2.0,100,0.00,,,0.00,Weather View 32 v70,2013-08-27 10:44:00,
2013-08-27 06:49:00,67.0,67.0,29.88,WSW,248,0.0,2.0,100,0.00,,,0.00,Weather View 32 v70,2013-08-27 10:49:00,
2013-08-27 07:00:00,67.0,67.0,29.88,WSW,248,1.0,2.0,100,0.00,,,0.00,Weather View 32 v70,2013-08-27 11:00:00,
2013-08-27 07:05:00,67.0,67.0,29.89,SE,135,0.0,2.0,100,0.00,,,0.00,Weather View 32 v70,2013-08-27 11:05:00,
2013-08-27 07:14:00,67.0,67.0,29.89,SW,225,0.0,3.0,100,0.00,,,0.00,Weather View 32 v70,2013-08-27 11:14:00,
2013-08-27 07:25:00,68.0,68.0,29.89,SSE,158,1.0,3.0,100,0.00,,,0.00,Weather View 32 v70,2013-08-27 11:25:00,
2013-08-27 07:30:00,68.0,68.0,29.88,SE,135,0.0,3.0,100,0.00,,,0.00,Weather View 32 v70,2013-08-27 11:30:00,
2013-08-27 07:39:00,69.0,69.0,29.89,South,180,1.0,3.0,100,0.00,,,0.00,Weather View 32 v70,2013-08-27 11:39:00,
2013-08-27 07:44:00,69.0,69.0,29.88,WSW,248,0.0,3.0,100,0.00,,,0.00,Weather View 32 v70,2013-08-27 11:44:00,
2013-08-27 07:49:00,69.0,69.0,29.89,SSE,158,1.0,3.0,100,0.00,,,0.00,Weather View 32 v70,2013-08-27 11:49:00,
2013-08-27 08:00:00,69.0,69.0,29.89,WNW,292,1.0,3.0,100,0.00,,,0.00,Weather View 32 v70,2013-08-27 12:00:00,
2013-08-27 08:10:00,70.0,70.0,29.89,WNW,292,0.0,4.0,100,0.00,,,0.00,Weather View 32 v70,2013-08-27 12:10:00,
2013-08-27 08:19:00,70.0,70.0,29.89,WSW,248,0.0,4.0,100,0.00,,,0.00,Weather View 32 v70,2013-08-27 12:19:00,
2013-08-27 08:25:00,70.0,70.0,29.89,SE,135,0.0,4.0,100,0.00,,,0.00,Weather View 32 v70,2013-08-27 12:25:00,
2013-08-27 08:34:00,70.0,70.0,29.89,South,180,0.0,4.0,100,0.00,,,0.00,Weather View 32 v70,2013-08-27 12:34:00,
2013-08-27 08:39:00,70.0,70.0,29.89,SW,225,0.0,4.0,100,0.00,,,0.00,Weather View 32 v70,2013-08-27 12:39:00,
2013-08-27 08:46:00,70.0,70.0,29.89,SW,225,0.0,4.0,100,0.00,,,0.00,Weather View 32 v70,2013-08-27 12:46:00,
2013-08-27 08:54:00,71.0,71.0,29.89,South,180,0.0,4.0,100,0.00,,,0.00,Weather View 32 v70,2013-08-27 12:54:00,
2013-08-27 09:05:00,70.0,70.0,29.89,WNW,292,0.0,4.0,100,0.00,,,0.00,Weather View 32 v70,2013-08-27 13:05:00,
2013-08-27 09:14:00,71.0,70.7,29.89,WSW,248,1.0,4.0,99,0.00,,,0.00,Weather View 32 v70,2013-08-27 13:14:00,
2013-08-27 09:24:00,71.0,69.8,29.90,SSW,202,1.0,4.0,96,0.00,,,0.00,Weather View 32 v70,2013-08-27 13:24:00,
2013-08-27 09:30:00,72.0,70.5,29.90,SSW,202,1.0,4.0,95,0.00,,,0.00,Weather View 32 v70,2013-08-27 13:30:00,
2013-08-27 09:35:00,72.0,70.2,29.89,West,270,1.0,4.0,94,0.00,,,0.00,Weather View 32 v70,2013-08-27 13:35:00,
2013-08-27 09:44:00,73.0,69.6,29.90,South,180,1.0,4.0,89,0.00,,,0.00,Weather View 32 v70,2013-08-27 13:44:00,
2013-08-27 09:50:00,73.0,69.6,29.90,WNW,292,1.0,4.0,89,0.00,,,0.00,Weather View 32 v70,2013-08-27 13:50:00,
2013-08-27 09:59:00,73.0,69.2,29.90,SE,135,1.0,4.0,88,0.00,,,0.00,Weather View 32 v70,2013-08-27 13:59:00,
2013-08-27 10:04:00,73.0,69.2,29.89,WSW,248,1.0,4.0,88,0.00,,,0.00,Weather View 32 v70,2013-08-27 14:04:00,
2013-08-27 10:10:00,73.0,69.6,29.90,WSW,248,1.0,3.0,89,0.00,,,0.00,Weather View 32 v70,2013-08-27 14:10:00,
2013-08-27 10:20:00,74.0,70.2,29.89,SSW,202,1.0,3.0,88,0.00,,,0.00,Weather View 32 v70,2013-08-27 14:20:00,
2013-08-27 10:29:00,75.0,70.2,29.90,SSE,158,0.0,3.0,85,0.00,,,0.00,Weather View 32 v70,2013-08-27 14:29:00,
2013-08-27 10:34:00,75.0,70.2,29.90,SW,225,1.0,3.0,85,0.00,,,0.00,Weather View 32 v70,2013-08-27 14:34:00,
2013-08-27 10:40:00,76.0,70.8,29.89,South,180,1.0,3.0,84,0.00,,,0.00,Weather View 32 v70,2013-08-27 14:40:00,
2013-08-27 10:48:00,76.0,70.4,29.89,SE,135,1.0,3.0,83,0.00,,,0.00,Weather View 32 v70,2013-08-27 14:48:00,
2013-08-27 10:55:00,76.0,70.4,29.90,SSW,202,1.0,3.0,83,0.00,,,0.00,Weather View 32 v70,2013-08-27 14:55:00,
2013-08-27 11:04:00,77.0,70.0,29.90,SE,135,0.0,4.0,79,0.00,,,0.00,Weather View 32 v70,2013-08-27 15:04:00,
2013-08-27 11:10:00,77.0,70.0,29.90,SE,135,1.0,4.0,79,0.00,,,0.00,Weather View 32 v70,2013-08-27 15:10:00,
2013-08-27 11:19:00,77.0,69.2,29.90,SE,135,1.0,4.0,77,0.00,,,0.00,Weather View 32 v70,2013-08-27 15:19:00,
2013-08-27 11:29:00,77.0,68.0,29.90,SSE,158,1.0,4.0,74,0.00,,,0.00,Weather View 32 v70,2013-08-27 15:29:00,
2013-08-27 11:35:00,77.0,68.4,29.89,South,180,1.0,4.0,75,0.00,,,0.00,Weather View 32 v70,2013-08-27 15:35:00,
2013-08-27 11:44:00,78.0,69.0,29.89,SE,135,1.0,4.0,74,0.00,,,0.00,Weather View 32 v70,2013-08-27 15:44:00,
2013-08-27 11:50:00,78.0,69.0,29.89,SE,135,1.0,4.0,74,0.00,,,0.00,Weather View 32 v70,2013-08-27 15:50:00,
2013-08-27 11:59:00,78.0,68.2,29.89,South,180,1.0,3.0,72,0.00,,,0.00,Weather View 32 v70,2013-08-27 15:59:00,
2013-08-27 12:10:00,79.0,68.8,29.89,SE,135,1.0,3.0,71,0.00,,,0.00,Weather View 32 v70,2013-08-27 16:10:00,
2013-08-27 12:15:00,79.0,68.3,29.89,SSE,158,0.0,3.0,70,0.00,,,0.00,Weather View 32 v70,2013-08-27 16:15:00,
2013-08-27 12:24:00,79.0,68.8,29.89,South,180,0.0,3.0,71,0.00,,,0.00,Weather View 32 v70,2013-08-27 16:24:00,
2013-08-27 12:29:00,79.0,68.3,29.89,SE,135,0.0,3.0,70,0.00,,,0.00,Weather View 32 v70,2013-08-27 16:29:00,
2013-08-27 12:40:00,80.0,68.0,29.88,SSE,158,1.0,3.0,67,0.00,,,0.00,Weather View 32 v70,2013-08-27 16:40:00,
2013-08-27 12:45:00,80.0,68.4,29.89,South,180,2.0,3.0,68,0.00,,,0.00,Weather View 32 v70,2013-08-27 16:45:00,
2013-08-27 12:54:00,81.0,67.6,29.88,SE,135,2.0,3.0,64,0.00,,,0.00,Weather View 32 v70,2013-08-27 16:54:00,
2013-08-27 13:00:00,80.0,67.1,29.88,WSW,248,2.0,3.0,65,0.00,,,0.00,Weather View 32 v70,2013-08-27 17:00:00,
2013-08-27 13:09:00,80.0,68.9,29.88,South,180,1.0,3.0,69,0.00,,,0.00,Weather View 32 v70,2013-08-27 17:09:00,
2013-08-27 13:19:00,80.0,68.0,29.88,SE,135,1.0,3.0,67,0.00,,,0.00,Weather View 32 v70,2013-08-27 17:19:00,
2013-08-27 13:25:00,80.0,66.7,29.88,WSW,248,0.0,3.0,64,0.00,,,0.00,Weather View 32 v70,2013-08-27 17:25:00,
2013-08-27 13:30:00,81.0,68.5,29.88,SW,225,1.0,3.0,66,0.00,,,0.00,Weather View 32 v70,2013-08-27 17:30:00,
2013-08-27 13:39:00,81.0,66.7,29.88,WSW,248,0.0,3.0,62,0.00,,,0.00,Weather View 32 v70,2013-08-27 17:39:00,
2013-08-27 13:49:00,82.0,68.1,29.88,SE,135,1.0,3.0,63,0.00,,,0.00,Weather View 32 v70,2013-08-27 17:49:00,
2013-08-27 13:54:00,82.0,67.6,29.88,SSE,158,1.0,3.0,62,0.00,,,0.00,Weather View 32 v70,2013-08-27 17:54:00,
2013-08-27 14:05:00,83.0,68.6,29.87,SSW,202,1.0,3.0,62,0.00,,,0.00,Weather View 32 v70,2013-08-27 18:05:00,
2013-08-27 14:14:00,83.0,67.6,29.87,SE,135,1.0,3.0,60,0.00,,,0.00,Weather View 32 v70,2013-08-27 18:14:00,
2013-08-27 14:19:00,83.0,67.6,29.87,SSW,202,1.0,3.0,60,0.00,,,0.00,Weather View 32 v70,2013-08-27 18:19:00,
2013-08-27 14:30:00,83.0,67.1,29.87,SSE,158,1.0,3.0,59,0.00,,,0.00,Weather View 32 v70,2013-08-27 18:30:00,
2013-08-27 14:35:00,83.0,67.1,29.87,SE,135,0.0,3.0,59,0.00,,,0.00,Weather View 32 v70,2013-08-27 18:35:00,
2013-08-27 14:40:00,83.0,68.1,29.87,SE,135,1.0,3.0,61,0.00,,,0.00,Weather View 32 v70,2013-08-27 18:40:00,
2013-08-27 14:50:00,83.0,68.6,29.86,SSE,158,1.0,3.0,62,0.00,,,0.00,Weather View 32 v70,2013-08-27 18:50:00,
2013-08-27 14:59:00,82.0,66.7,29.86,SSE,158,1.0,3.0,60,0.00,,,0.00,Weather View 32 v70,2013-08-27 18:59:00,
2013-08-27 15:04:00,82.0,66.7,29.86,South,180,1.0,3.0,60,0.00,,,0.00,Weather View 32 v70,2013-08-27 19:04:00,
2013-08-27 15:15:00,83.0,69.1,29.86,South,180,2.0,3.0,63,0.00,,,0.00,Weather View 32 v70,2013-08-27 19:15:00,
2013-08-27 15:24:00,82.0,68.1,29.86,SSE,158,1.0,3.0,63,0.00,,,0.00,Weather View 32 v70,2013-08-27 19:24:00,
2013-08-27 15:29:00,82.0,68.6,29.86,SSE,158,0.0,3.0,64,0.00,,,0.00,Weather View 32 v70,2013-08-27 19:29:00,
2013-08-27 15:39:00,82.0,68.1,29.86,SSW,202,0.0,3.0,63,0.00,,,0.00,Weather View 32 v70,2013-08-27 19:39:00,
2013-08-27 15:45:00,83.0,68.1,29.86,SE,135,1.0,3.0,61,0.00,,,0.00,Weather View 32 v70,2013-08-27 19:45:00,
2013-08-27 15:51:00,83.0,67.6,29.85,SE,135,0.0,3.0,60,0.00,,,0.00,Weather View 32 v70,2013-08-27 19:51:00,
2013-08-27 16:00:00,83.0,67.6,29.86,SSW,202,1.0,3.0,60,0.00,,,0.00,Weather View 32 v70,2013-08-27 20:00:00,
2013-08-27 16:05:00,82.0,67.2,29.86,West,270,0.0,3.0,61,0.00,,,0.00,Weather View 32 v70,2013-08-27 20:05:00,
2013-08-27 16:14:00,83.0,68.1,29.85,SSW,202,0.0,3.0,61,0.00,,,0.00,Weather View 32 v70,2013-08-27 20:14:00,
2013-08-27 16:20:00,82.0,69.5,29.85,WNW,292,1.0,3.0,66,0.00,,,0.00,Weather View 32 v70,2013-08-27 20:20:00,
2013-08-27 16:29:00,81.0,69.8,29.86,WSW,248,1.0,2.0,69,0.00,,,0.00,Weather View 32 v70,2013-08-27 20:29:00,
2013-08-27 16:34:00,81.0,69.0,29.86,West,270,0.0,2.0,67,0.00,,,0.00,Weather View 32 v70,2013-08-27 20:34:00,
2013-08-27 16:44:00,81.0,69.8,29.85,WNW,292,0.0,2.0,69,0.00,,,0.00,Weather View 32 v70,2013-08-27 20:44:00,
2013-08-27 16:50:00,80.0,69.7,29.86,SW,225,1.0,2.0,71,0.00,,,0.00,Weather View 32 v70,2013-08-27 20:50:00,
2013-08-27 17:00:00,80.0,71.7,29.84,West,270,1.0,2.0,76,0.00,,,0.00,Weather View 32 v70,2013-08-27 21:00:00,
2013-08-27 17:09:00,79.0,71.1,29.86,WNW,292,1.0,2.0,77,0.00,,,0.00,Weather View 32 v70,2013-08-27 21:09:00,
2013-08-27 17:15:00,79.0,71.1,29.85,WNW,292,0.0,2.0,77,0.00,,,0.00,Weather View 32 v70,2013-08-27 21:15:00,
2013-08-27 17:50:00,77.0,70.0,29.86,WSW,248,1.0,1.0,79,0.00,,,0.00,Weather View 32 v70,2013-08-27 21:50:00,
2013-08-27 18:00:00,77.0,70.0,29.86,WSW,248,1.0,1.0,79,0.00,,,0.00,Weather View 32 v70,2013-08-27 22:00:00,
2013-08-27 18:09:00,77.0,70.3,29.85,WSW,248,1.0,1.0,80,0.00,,,0.00,Weather View 32 v70,2013-08-27 22:09:00,
2013-08-27 18:19:00,76.0,69.7,29.86,WSW,248,0.0,1.0,81,0.00,,,0.00,Weather View 32 v70,2013-08-27 22:19:00,
2013-08-27 18:25:00,76.0,69.7,29.86,WSW,248,1.0,1.0,81,0.00,,,0.00,Weather View 32 v70,2013-08-27 22:25:00,
2013-08-27 18:30:00,75.0,69.5,29.85,WSW,248,0.0,1.0,83,0.00,,,0.00,Weather View 32 v70,2013-08-27 22:30:00,
2013-08-27 18:39:00,73.0,67.9,29.86,WSW,248,0.0,1.0,84,0.00,,,0.00,Weather View 32 v70,2013-08-27 22:39:00,
2013-08-27 18:50:00,73.0,68.5,29.86,WSW,248,0.0,1.0,86,0.00,,,0.00,Weather View 32 v70,2013-08-27 22:50:00,
2013-08-27 18:59:00,73.0,68.9,29.86,SW,225,0.0,1.0,87,0.00,,,0.00,Weather View 32 v70,2013-08-27 22:59:00,
2013-08-27 19:05:00,73.0,69.2,29.85,WNW,292,0.0,1.0,88,0.00,,,0.00,Weather View 32 v70,2013-08-27 23:05:00,
2013-08-27 19:14:00,73.0,69.2,29.86,WSW,248,0.0,1.0,88,0.00,,,0.00,Weather View 32 v70,2013-08-27 23:14:00,
2013-08-27 19:19:00,73.0,69.2,29.86,WNW,292,0.0,1.0,88,0.00,,,0.00,Weather View 32 v70,2013-08-27 23:19:00,
2013-08-27 19:29:00,72.0,68.6,29.86,West,270,0.0,1.0,89,0.00,,,0.00,Weather View 32 v70,2013-08-27 23:29:00,
2013-08-27 19:35:00,71.0,67.9,29.86,West,270,0.0,1.0,90,0.00,,,0.00,Weather View 32 v70,2013-08-27 23:35:00,
2013-08-27 19:40:00,71.0,68.2,29.87,WNW,292,0.0,1.0,91,0.00,,,0.00,Weather View 32 v70,2013-08-27 23:40:00,
2013-08-27 19:44:00,70.0,67.6,29.86,WNW,292,0.0,1.0,92,0.00,,,0.00,Weather View 32 v70,2013-08-27 23:44:00,
2013-08-27 19:49:00,70.0,67.9,29.87,SW,225,1.0,1.0,93,0.00,,,0.00,Weather View 32 v70,2013-08-27 23:49:00,
2013-08-27 19:55:00,70.0,67.9,29.87,WSW,248,1.0,2.0,93,0.00,,,0.00,Weather View 32 v70,2013-08-27 23:55:00,
2013-08-27 20:04:00,70.0,67.9,29.88,WNW,292,1.0,2.0,93,0.00,,,0.00,Weather View 32 v70,2013-08-28 00:04:00,
2013-08-27 20:09:00,70.0,68.2,29.87,WNW,292,0.0,2.0,94,0.00,,,0.00,Weather View 32 v70,2013-08-28 00:09:00,
2013-08-27 20:20:00,70.0,67.9,29.88,SSW,202,0.0,2.0,93,0.00,,,0.00,Weather View 32 v70,2013-08-28 00:20:00,
2013-08-27 20:29:00,70.0,67.9,29.89,South,180,1.0,2.0,93,0.00,,,0.00,Weather View 32 v70,2013-08-28 00:29:00,
2013-08-27 20:40:00,71.0,69.5,29.89,South,180,0.0,3.0,95,0.00,,,0.00,Weather View 32 v70,2013-08-28 00:40:00,
2013-08-27 20:45:00,71.0,69.2,29.89,South,180,1.0,3.0,94,0.00,,,0.00,Weather View 32 v70,2013-08-28 00:45:00,
2013-08-27 20:54:00,72.0,70.5,29.89,SSW,202,2.0,3.0,95,0.00,,,0.00,Weather View 32 v70,2013-08-28 00:54:00,
2013-08-27 21:00:00,72.0,69.9,29.90,South,180,3.0,5.0,93,0.00,,,0.00,Weather View 32 v70,2013-08-28 01:00:00,
2013-08-27 21:09:00,73.0,70.2,29.90,SE,135,3.0,5.0,91,0.00,,,0.00,Weather View 32 v70,2013-08-28 01:09:00,
2013-08-27 21:15:00,73.0,70.2,29.90,SSE,158,2.0,5.0,91,0.00,,,0.00,Weather View 32 v70,2013-08-28 01:15:00,
2013-08-27 21:24:00,73.0,69.9,29.90,South,180,3.0,6.0,90,0.00,,,0.00,Weather View 32 v70,2013-08-28 01:24:00,
2013-08-27 21:29:00,73.0,70.2,29.90,SE,135,1.0,6.0,91,0.00,,,0.00,Weather View 32 v70,2013-08-28 01:29:00,
2013-08-27 21:35:00,73.0,70.2,29.90,South,180,3.0,6.0,91,0.00,,,0.00,Weather View 32 v70,2013-08-28 01:35:00,
2013-08-27 21:40:00,73.0,69.9,29.89,SSW,202,1.0,6.0,90,0.00,,,0.00,Weather View 32 v70,2013-08-28 01:40:00,
2013-08-27 21:50:00,72.0,69.2,29.90,SW,225,2.0,6.0,91,0.00,,,0.00,Weather View 32 v70,2013-08-28 01:50:00,
2013-08-27 21:55:00,72.0,69.2,29.91,SE,135,5.0,7.0,91,0.00,,,0.00,Weather View 32 v70,2013-08-28 01:55:00,
2013-08-27 22:00:00,72.0,68.9,29.90,South,180,3.0,7.0,90,0.00,,,0.00,Weather View 32 v70,2013-08-28 02:00:00,
2013-08-27 22:09:00,72.0,68.2,29.90,South,180,3.0,7.0,88,0.00,,,0.00,Weather View 32 v70,2013-08-28 02:09:00,
2013-08-27 22:15:00,72.0,68.2,29.91,SE,135,1.0,7.0,88,0.00,,,0.00,Weather View 32 v70,2013-08-28 02:15:00,
2013-08-27 22:20:00,72.0,68.2,29.91,South,180,1.0,7.0,88,0.00,,,0.00,Weather View 32 v70,2013-08-28 02:20:00,
2013-08-27 22:30:00,72.0,69.2,29.90,SE,135,2.0,7.0,91,0.00,,,0.00,Weather View 32 v70,2013-08-28 02:30:00,
2013-08-27 22:40:00,72.0,69.5,29.90,South,180,1.0,7.0,92,0.00,,,0.00,Weather View 32 v70,2013-08-28 02:40:00,
2013-08-27 22:50:00,71.0,68.9,29.91,SSW,202,1.0,7.0,93,0.00,,,0.00,Weather View 32 v70,2013-08-28 02:50:00,
2013-08-27 22:55:00,71.0,69.2,29.91,SE,135,1.0,6.0,94,0.00,,,0.00,Weather View 32 v70,2013-08-28 02:55:00,
2013-08-27 23:04:00,71.0,68.2,29.91,South,180,1.0,6.0,91,0.00,,,0.00,Weather View 32 v70,2013-08-28 03:04:00,
2013-08-27 23:10:00,72.0,68.2,29.91,SE,135,1.0,6.0,88,0.00,,,0.00,Weather View 32 v70,2013-08-28 03:10:00,
2013-08-27 23:15:00,72.0,67.6,29.90,SW,225,3.0,5.0,86,0.00,,,0.00,Weather View 32 v70,2013-08-28 03:15:00,
2013-08-27 23:24:00,72.0,67.9,29.91,SSW,202,1.0,5.0,87,0.00,,,0.00,Weather View 32 v70,2013-08-28 03:24:00,
2013-08-27 23:35:00,71.0,67.6,29.91,West,270,1.0,5.0,89,0.00,,,0.00,Weather View 32 v70,2013-08-28 03:35:00,
2013-08-27 23:41:00,71.0,67.6,29.91,West,270,1.0,5.0,89,0.00,,,0.00,Weather View 32 v70,2013-08-28 03:41:00,
2013-08-27 23:50:00,71.0,68.2,29.92,SE,135,1.0,5.0,91,0.00,,,0.00,Weather View 32 v70,2013-08-28 03:50:00,
2013-08-27 23:59:00,70.0,67.9,29.91,SSW,202,1.0,5.0,93,0.00,,,0.00,Weather View 32 v70,2013-08-28 03:59:00,